カタログに戻る

SL-16 DEB

運用中LEO
NORAD 24303·DEBRIS·🇷🇺 Russia

打ち上げ Sep 4, 1996 から Baikonur Cosmodrome

Loading…

次のパス (今後24時間)

TLE

最新Source: Space-Track

元期: Sep 14, 2026, 14:13 UTC

1 24303U 96051G   26257.59274469 -.00000068  00000-0 -12073-4 0  9994
2 24303  71.1062 206.6004 0071733 219.6016 314.9302 14.08424301543253

AllMySatでSL-16 DEBをリアルタイム追跡

Download on the App Store